Regional Weather Roundup
Issued by NWS

Home | Current Version | Previous Version | Graphics & Text | Print | Product List | Glossary On
Versions: 1 2 3 4 5 6 7 8 9 10 11 12 13 14 15 16 17 18 19 20 21 22 23 24 25 26 27 28 29 30 31 32 33 34 35 36 37 38 39 40 41 42 43 44 45 46 47 48 49 50
000
ASUS43 KFSD 230602
RWRSD

WEATHER ROUNDUP FOR SOUTH DAKOTA
NATIONAL WEATHER SERVICE SIOUX FALLS SD
100 AM CDT SAT AUG 23 2014

NOTE: "FAIR" INDICATES FEW OR NO CLOUDS BELOW 12,000 FEET WITH NO
SIGNIFICANT WEATHER AND/OR OBSTRUCTIONS TO VISIBILITY.


SDZ001>005-009-010-012>017-230700-
NORTHWEST AND NORTH CENTRAL SOUTH DAKOTA

CITY           SKY/WX    TMP DP  RH WIND       PRES   REMARKS
BUFFALO          N/A     65  60  84 E18       29.94F
FAITH            N/A     65  63  93 NE14      30.00F
MOBRIDGE       CLOUDY    68  67  96 E14G22    29.99F
$$

SDZ012>016-024>037-041>051-057-063-072>074-230700-
SOUTHWEST AND SOUTH CENTRAL SOUTH DAKOTA

CITY           SKY/WX    TMP DP  RH WIND       PRES   REMARKS
RAPID CTY ARPT CLOUDY    67  63  87 E10       29.97F
PIERRE         HVY RAIN  69  68  96 E18G28    29.94F FOG
ELLSWORTH AFB  CLOUDY    66  64  92 E9        29.97F
PHILIP         CLOUDY    68  64  87 E13       29.95F
PINE RIDGE     LGT RAIN  65  60  84 NE3       29.99S
WINNER         MOCLDY    72  68  87 E8        29.95F
$$

SDZ004>011-016>023-039-040-230700-
NORTHEAST SOUTH DAKOTA

CITY           SKY/WX    TMP DP  RH WIND       PRES   REMARKS
ABERDEEN       MOCLDY    65  65 100 NE10      30.03F
WATERTOWN      FAIR      68  66  93 NE8       30.03F
SISSETON         N/A     67  67 100 N6        30.04F
$$

SDZ017-020-022-023-036>040-048>070-230700-
SOUTHEAST SOUTH DAKOTA

CITY           SKY/WX    TMP DP  RH WIND       PRES   REMARKS
SIOUX FALLS    FAIR      73  68  84 E8        29.97S
HURON          CLOUDY    73  68  84 E13       29.97F
CHAMBERLAIN    CLOUDY    71  69  93 E6        29.95F
MITCHELL       CLOUDY    73  70  90 E6        29.96S
YANKTON        FAIR      73  72  94 E8        29.93S
$$

ABBREVIATIONS USED IN REMARKS
   TC - TEMPERATURE IN CELSIUS
  WCI - WIND CHILL INDEX
   HX - HEAT INDEX
  VSB - VISIBILITY



USA.gov is the U.S. government's official web portal to all federal, state and local government web resources and services.